Wind_Speed
19 16 13 10 7 7 8 12 17 17 18 23 27 27 28 26 24 22 22 21 20 20 19 18 17 17 18 18 19 20 19 20 19 17 15 15 13 12 10 7 5 8 8 9 6
23 19 17 13 10 7 7 8 11 16 16 17 19 23 25 26 27 26 24 22 22 22 21 21 21 22 21 20 20 21 21 20 20 19 17 16 16 15 12 10 8 6 7 11 12
27 24 20 18 14 11 9 8 7 8 12 15 15 17 18 21 23 25 26 27 27 27 26 26 27 24 22 21 21 21 22 21 21 19 18 18 17 16 14 12 9 8 7 9 12
32 28 25 22 19 14 12 10 8 7 6 9 12 13 14 16 17 19 21 23 25 25 25 27 29 27 24 23 21 21 21 20 19 19 19 18 18 17 16 13 11 8 7 5 7
37 33 30 26 23 19 16 13 11 9 8 4 6 9 13 14 14 14 15 18 19 20 22 24 26 29 28 24 21 21 21 21 21 20 19 19 18 17 16 14 13 10 6 4 3
41 38 34 30 27 24 20 17 14 11 10 9 5 4 7 10 13 14 13 14 15 17 18 20 22 25 26 28 27 24 23 24 23 22 21 19 18 17 16 13 13 12 10 7 4
46 43 39 36 32 28 25 22 19 15 12 12 9 7 4 4 7 11 12 12 14 14 16 18 20 23 26 29 32 29 25 24 24 25 23 21 18 15 16 16 12 12 11 11 9
50 48 45 41 37 33 29 27 24 20 16 14 12 10 9 5 2 4 7 10 10 14 16 17 19 22 23 26 29 30 26 23 24 25 26 23 19 16 14 14 15 13 13 12 12
55 52 50 46 42 39 35 32 29 25 21 18 15 13 11 9 7 3 2 4 7 10 12 15 17 17 21 21 25 29 29 28 24 24 26 26 21 17 14 12 12 14 13 13 13
59 56 54 51 48 44 41 37 34 30 27 23 20 17 14 12 10 7 6 4 4 6 8 10 14 17 17 19 20 25 30 31 30 28 28 29 24 23 22 18 14 13 14 14 14
63 61 58 55 53 49 46 43 40 36 31 28 24 22 19 16 14 12 10 9 8 7 8 9 9 13 16 18 19 21 26 30 32 29 28 28 27 22 23 24 21 16 12 11 12
66 64 62 59 57 54 52 48 44 41 37 32 29 26 24 21 18 17 15 13 11 10 9 11 10 12 14 18 21 21 23 26 30 31 29 27 26 26 23 22 23 22 20 16 14
71 67 66 64 61 59 57 54 50 46 43 39 35 31 29 26 23 21 20 20 16 14 13 13 13 13 16 16 19 23 23 25 27 30 30 29 25 25 25 24 22 23 23 22 19
77 73 69 68 66 64 61 58 54 51 48 45 41 36 34 30 28 26 25 24 22 20 17 16 16 15 16 17 19 22 25 25 28 29 32 29 29 26 24 23 22 20 21 21 21
79 79 75 71 70 68 66 62 59 57 54 49 44 42 38 36 34 32 29 28 26 25 21 21 20 17 18 19 19 22 26 26 27 30 32 33 32 29 26 23 21 21 21 20 20
82 81 81 78 73 72 70 67 64 62 57 53 49 46 44 42 39 37 34 31 30 29 25 27 23 22 20 21 20 22 25 27 27 29 32 34 35 36 31 28 25 23 22 21 21
87 84 83 83 80 76 74 71 69 63 59 56 53 52 50 46 43 40 39 36 34 32 31 31 27 26 23 24 22 22 24 27 27 28 30 33 35 37 38 32 28 26 24 22 19
92 90 88 85 84 83 79 75 70 65 66 60 58 56 51 49 45 43 42 41 40 39 36 34 32 29 25 26 26 24 26 28 28 29 30 31 34 37 40 39 37 33 28 25 23
99 95 94 90 88 87 85 79 70 71 70 66 63 60 57 53 50 49 47 47 45 43 40 40 37 33 30 30 30 29 29 31 30 31 32 33 34 35 41 43 41 40 37 34 31
103 101 98 96 94 90 86 78 78 78 77 73 69 65 62 58 55 54 52 51 49 48 45 42 40 37 36 34 34 32 32 33 32 32 34 35 35 37 41 44 45 45 44 40 38
107 106 104 102 99 96 83 80 82 84 81 78 75 70 67 63 59 58 55 53 52 51 47 45 44 42 40 38 38 37 37 36 35 34 36 37 37 39 42 45 46 46 44 44 42
101 109 109 107 104 96 92 87 86 88 85 82 78 75 71 67 65 61 58 58 55 54 50 49 47 44 43 44 43 40 41 40 39 38 37 39 41 43 45 47 48 48 47 48 46
84 106 112 113 107 101 97 95 92 93 88 83 80 78 74 71 69 66 64 62 59 57 53 51 49 49 47 47 48 45 44 44 44 41 41 43 44 47 49 51 50 50 52 52 52
83 94 111 112 111 106 102 99 97 97 93 88 85 79 75 73 70 69 68 65 62 62 58 58 55 52 52 54 50 49 48 49 47 45 45 45 48 49 54 56 55 53 53 54 54
94 91 97 110 112 112 108 103 102 98 95 93 88 83 79 78 74 72 71 68 67 64 62 60 57 56 57 56 54 52 51 52 51 50 48 49 51 52 55 58 60 60 59 58 56
103 96 95 100 110 113 111 108 104 103 101 93 90 90 87 81 79 78 77 76 73 72 69 67 64 62 60 60 58 55 55 55 55 54 54 53 53 54 55 57 62 63 65 64 61
109 106 99 98 101 112 112 112 111 108 104 99 95 93 88 85 85 82 80 79 76 75 73 71 66 66 65 62 61 58 57 59 59 59 60 59 57 58 58 62 64 64 66 66 64
Wind_Direction
198 188 174 166 149 129 96 80 76 79 80 79 84 82 82 85 82 80 80 79 77 73 70 67 60 50 41 33 42 41 38 37 34 34 41 38 33 27 25 26 27 13 10 27 10
203 200 191 184 177 162 138 103 84 76 80 80 77 84 83 81 83 83 80 77 73 67 61 56 53 47 42 38 35 31 30 33 30 28 23 29 27 24 22 22 21 16 27 42 46
207 206 203 195 191 183 170 152 116 86 78 79 80 76 83 82 79 77 77 78 76 71 61 52 46 42 37 31 26 33 27 24 24 22 22 18 21 19 18 15 16 8 11 41 50
210 209 208 205 200 194 191 178 163 131 94 79 76 78 78 80 79 80 77 75 73 69 61 57 55 49 42 33 25 30 28 24 22 16 12 11 10 8 9 7 2 9 1 357 46
211 210 211 211 209 202 203 202 192 173 154 123 80 76 71 73 73 70 72 72 66 61 54 45 46 47 45 39 32 28 24 20 17 13 9 2 355 353 351 350 355 356 359 339 341
214 212 213 213 214 210 205 211 212 200 184 174 158 99 77 76 71 69 69 68 64 60 52 43 37 39 37 36 33 29 20 16 11 9 4 0 355 343 339 339 339 342 345 341 335
215 214 214 215 216 216 214 211 216 215 202 192 191 186 159 91 76 68 64 63 58 53 46 42 35 29 30 30 30 26 18 12 7 7 7 5 356 343 330 327 326 325 329 333 338
217 217 215 217 218 218 218 216 217 219 219 211 203 205 202 189 141 69 55 51 51 52 41 35 30 27 24 24 25 22 22 15 9 10 8 6 0 350 333 318 315 319 319 325 329
219 219 218 218 219 219 221 222 220 221 222 224 219 215 219 219 212 220 14 24 25 29 33 30 28 21 20 19 15 18 19 18 14 12 11 11 11 10 358 342 327 319 318 320 321
221 220 221 220 220 222 221 224 227 226 224 226 228 228 227 231 233 238 246 281 312 345 358 9 10 14 7 11 6 10 15 15 13 11 10 14 15 19 21 17 5 349 333 328 321
221 222 221 223 222 223 224 223 227 230 229 226 230 230 233 234 237 239 245 252 271 297 312 335 341 353 360 357 359 357 4 11 8 10 10 11 16 18 23 24 20 11 3 348 335
222 222 223 223 224 224 226 226 226 229 232 231 230 232 234 237 240 241 248 252 262 270 287 303 320 332 338 346 354 345 350 359 5 6 9 8 12 17 17 15 17 15 9 3 352
223 223 224 224 225 226 226 227 228 229 231 232 232 233 238 239 243 246 246 251 255 261 272 283 298 308 325 330 341 344 339 346 355 1 6 6 8 12 15 16 13 10 6 4 5
224 225 225 226 226 227 227 228 228 229 231 232 233 234 239 244 245 247 250 253 256 257 262 273 282 292 304 320 327 335 337 337 342 351 360 2 4 7 9 11 13 9 1 2 360
224 226 226 227 228 227 228 228 229 230 230 233 235 237 238 241 246 249 253 255 259 260 260 267 272 282 295 303 314 321 328 334 334 339 347 355 1 359 359 2 3 5 3 356 358
228 226 226 227 228 229 229 228 230 231 232 233 235 237 239 240 243 248 252 257 257 262 264 265 268 276 286 294 299 307 321 324 326 329 336 344 352 353 354 353 354 353 357 358 355
227 228 227 227 228 229 230 230 230 232 232 233 236 238 239 243 247 248 251 255 258 264 263 266 267 272 277 288 290 294 312 317 318 321 325 333 339 345 346 350 350 350 350 350 348
226 228 228 228 227 228 229 230 231 232 233 233 234 237 239 242 246 249 251 252 254 260 267 270 269 270 277 282 286 286 304 310 314 319 319 323 329 334 339 342 343 344 345 345 345
226 227 228 229 229 228 228 230 231 232 234 234 235 237 240 243 245 247 249 251 255 258 262 266 269 270 274 275 283 282 296 301 309 313 316 317 317 324 329 335 337 339 339 338 337
227 227 227 227 229 229 228 228 230 233 234 235 237 237 238 240 243 246 249 249 252 256 261 266 268 266 272 271 277 278 289 295 302 307 307 313 313 316 322 327 331 332 335 333 331
228 227 228 227 228 230 229 228 230 233 234 236 237 239 240 242 242 245 247 248 251 257 261 264 264 263 269 271 275 276 284 291 298 299 302 306 310 310 315 321 324 325 326 327 325
229 228 228 228 227 228 228 228 229 233 234 234 236 237 239 240 242 244 245 246 251 255 258 260 262 264 269 270 273 277 281 286 291 296 299 298 305 306 311 316 318 321 322 322 321
233 229 228 228 227 226 227 228 229 233 233 234 235 236 239 240 242 244 247 250 251 254 256 256 259 264 268 270 269 275 281 283 290 295 294 295 298 303 307 312 315 317 319 319 317
230 230 228 228 227 226 227 228 229 231 233 234 235 235 236 238 240 243 246 248 250 253 256 257 259 263 264 267 271 273 279 282 287 288 292 289 291 299 304 308 311 314 313 313 312
226 228 229 227 227 226 226 227 229 231 233 233 235 237 237 238 239 241 244 247 248 250 253 256 257 259 263 266 270 275 279 280 283 284 288 290 288 294 299 303 308 311 311 309 307
224 225 226 227 227 226 226 227 229 231 232 234 233 234 235 237 239 240 242 244 246 247 250 254 256 260 263 267 271 274 278 279 280 283 286 289 289 291 293 296 303 306 307 307 304
221 222 223 223 225 226 225 227 227 229 231 232 233 236 236 236 236 238 241 244 246 248 251 255 258 260 263 266 268 273 275 276 278 282 284 286 290 289 292 295 299 299 301 303 300
Height
10998 11002 11003 11005 11006 11007 11007 11006 11006 11005 11004 11003 11001 11000 10999 10999 10998 10998 10998 10998 10998 10997 10997 10997 10996 10995 10991 10989 10987 10985 10984 10982 10980 10978 10977 10977 10976 10976 10974 10973 10973 10971 10970 10969 10966
10996 10999 11001 11003 11006 11007 11008 11008 11007 11007 11006 11005 11004 11004 11002 11002 11001 11001 11000 11000 10999 10998 10997 10997 10996 10994 10990 10988 10986 10984 10983 10982 10980 10977 10976 10975 10975 10974 10973 10972 10971 10971 10969 10967 10965
10993 10996 10999 11001 11004 11006 11007 11009 11008 11008 11008 11007 11007 11006 11006 11005 11004 11004 11003 11003 11002 11001 10999 10997 10995 10992 10990 10988 10987 10986 10983 10981 10979 10978 10976 10974 10973 10973 10972 10971 10970 10968 10968 10967 10965
10988 10992 10995 10998 11001 11004 11006 11008 11009 11008 11008 11008 11008 11008 11008 11007 11007 11006 11006 11005 11004 11003 11002 11001 11000 10998 10994 10990 10989 10988 10986 10984 10982 10980 10978 10975 10973 10972 10971 10970 10968 10968 10967 10966 10965
10983 10987 10991 10995 10998 11001 11003 11006 11007 11009 11008 11008 11009 11008 11008 11008 11008 11007 11006 11006 11005 11005 11003 11001 11001 10998 10996 10995 10992 10988 10987 10986 10984 10982 10979 10975 10973 10971 10970 10968 10967 10966 10966 10965 10964
10977 10982 10986 10990 10994 10997 11000 11003 11005 11007 11008 11009 11009 11009 11009 11009 11009 11008 11008 11007 11007 11006 11005 11004 11002 11000 10998 10995 10992 10989 10987 10986 10984 10982 10979 10976 10974 10970 10969 10967 10965 10964 10963 10963 10963
10970 10976 10980 10984 10988 10992 10996 10999 11002 11004 11007 11008 11009 11009 11008 11009 11009 11009 11009 11008 11007 11007 11006 11005 11002 10999 10997 10994 10990 10990 10989 10986 10984 10981 10979 10976 10973 10971 10967 10965 10964 10963 10961 10960 10960
10963 10968 10974 10978 10983 10987 10990 10994 10998 11000 11003 11005 11007 11008 11008 11008 11009 11009 11009 11009 11008 11007 11006 11005 11002 10999 10997 10994 10993 10992 10991 10990 10986 10982 10978 10975 10972 10969 10967 10964 10963 10962 10959 10959 10958
10955 10960 10966 10971 10976 10981 10985 10988 10992 10996 10999 11002 11004 11005 11006 11007 11007 11008 11008 11009 11008 11008 11007 11005 11004 11002 10999 10997 10996 10994 10991 10990 10988 10984 10979 10975 10971 10969 10965 10963 10962 10960 10959 10958 10957
10944 10951 10957 10963 10968 10973 10978 10982 10985 10990 10994 10997 11000 11002 11004 11005 11005 11006 11007 11007 11007 11007 11007 11007 11006 11003 11000 10998 10997 10995 10991 10988 10986 10983 10979 10975 10971 10968 10965 10963 10961 10960 10958 10958 10956
10934 10940 10947 10953 10959 10964 10970 10975 10979 10983 10988 10992 10996 10998 11000 11002 11003 11004 11005 11006 11006 11006 11006 11006 11006 11005 11003 11000 10997 10995 10992 10989 10985 10983 10980 10976 10973 10969 10966 10963 10961 10959 10958 10956 10954
10923 10930 10936 10942 10949 10955 10960 10966 10971 10976 10980 10985 10989 10993 10995 10998 11000 11002 11003 11004 11005 11005 11005 11005 11004 11004 11003 10999 10996 10994 10992 10989 10986 10983 10981 10977 10973 10969 10966 10963 10960 10958 10955 10954 10953
10911 10918 10924 10931 10938 10944 10951 10957 10963 10968 10972 10977 10982 10986 10989 10993 10995 10997 10999 11000 11001 11002 11003 11003 11003 11002 11000 10999 10995 10992 10990 10986 10985 10983 10980 10977 10975 10971 10967 10964 10960 10957 10954 10952 10952
10897 10904 10912 10919 10926 10932 10939 10946 10953 10958 10963 10968 10973 10979 10983 10986 10989 10991 10994 10995 10997 10998 10999 10999 10999 10999 10998 10996 10993 10991 10987 10984 10980 10979 10979 10977 10973 10970 10967 10964 10961 10959 10955 10952 10950
10881 10890 10898 10907 10913 10920 10927 10935 10941 10946 10953 10960 10967 10970 10975 10979 10981 10984 10988 10989 10991 10992 10994 10994 10995 10996 10995 10994 10991 10988 10985 10981 10977 10974 10972 10972 10971 10969 10966 10964 10961 10959 10957 10953 10950
10866 10874 10882 10891 10899 10906 10914 10923 10928 10935 10945 10951 10957 10961 10966 10969 10973 10976 10980 10983 10984 10986 10988 10988 10990 10991 10991 10990 10988 10986 10984 10980 10977 10973 10968 10966 10966 10965 10965 10963 10960 10958 10956 10954 10951
10847 10857 10866 10874 10884 10890 10900 10908 10915 10927 10935 10941 10946 10949 10954 10960 10964 10969 10971 10974 10977 10978 10979 10981 10983 10984 10986 10985 10985 10983 10982 10979 10976 10973 10969 10963 10961 10961 10959 10959 10957 10955 10953 10952 10950
10826 10836 10846 10856 10866 10874 10884 10893 10907 10917 10918 10929 10933 10937 10945 10950 10955 10959 10963 10966 10967 10968 10971 10973 10975 10977 10980 10979 10979 10978 10977 10976 10973 10970 10968 10964 10960 10957 10954 10953 10950 10949 10949 10948 10946
10804 10814 10825 10838 10846 10855 10866 10882 10899 10899 10905 10913 10920 10927 10934 10940 10945 10948 10953 10955 10958 10961 10964 10965 10968 10969 10971 10972 10973 10972 10972 10971 10969 10965 10963 10960 10957 10954 10951 10948 10946 10943 10940 10937 10937
10782 10792 10802 10816 10825 10835 10852 10875 10879 10882 10888 10897 10906 10914 10921 10927 10933 10936 10942 10946 10948 10951 10956 10958 10959 10961 10962 10964 10965 10966 10965 10965 10963 10960 10958 10955 10953 10950 10947 10944 10940 10937 10934 10931 10929
10755 10768 10779 10791 10803 10818 10848 10860 10862 10861 10871 10882 10891 10902 10908 10916 10921 10925 10931 10935 10939 10941 10947 10949 10950 10952 10953 10956 10956 10957 10958 10958 10957 10955 10952 10948 10947 10944 10942 10941 10938 10934 10931 10928 10925
10728 10743 10754 10767 10785 10808 10825 10837 10843 10840 10853 10865 10876 10886 10894 10902 10907 10914 10919 10921 10927 10931 10936 10938 10940 10943 10944 10945 10946 10948 10948 10949 10949 10949 10946 10942 10940 10937 10936 10934 10932 10928 10925 10921 10917
10703 10717 10727 10742 10767 10789 10800 10813 10820 10822 10839 10850 10860 10870 10880 10889 10895 10901 10905 10909 10915 10919 10924 10926 10931 10932 10934 10935 10934 10938 10938 10938 10940 10939 10938 10933 10932 10929 10928 10926 10924 10921 10916 10912 10908
10679 10688 10703 10722 10743 10767 10780 10792 10800 10803 10818 10833 10843 10855 10865 10873 10881 10887 10890 10898 10902 10905 10911 10913 10919 10921 10923 10921 10926 10926 10928 10928 10929 10930 10929 10925 10919 10921 10916 10914 10914 10912 10908 10905 10901
10652 10664 10680 10699 10718 10738 10755 10770 10778 10789 10802 10813 10829 10841 10850 10857 10866 10872 10875 10882 10887 10891 10895 10900 10907 10909 10909 10911 10914 10916 10917 10916 10918 10918 10918 10915 10911 10909 10907 10902 10900 10899 10896 10894 10891
10625 10641 10655 10674 10692 10713 10734 10750 10760 10767 10780 10797 10810 10816 10827 10841 10848 10854 10858 10862 10869 10874 10880 10885 10893 10896 10899 10900 10902 10905 10906 10905 10904 10905 10905 10904 10903 10900 10897 10894 10890 10886 10884 10881 10877
10593 10614 10630 10648 10666 10687 10712 10723 10735 10745 10759 10776 10789 10796 10809 10822 10827 10835 10842 10847 10856 10859 10866 10871 10880 10882 10885 10889 10889 10895 10894 10891 10891 10891 10892 10892 10893 10889 10887 10884 10882 10878 10874 10869 10865